TimeEDT,TemperatureF,Dew PointF,Humidity,Sea Level PressureIn,VisibilityMPH,Wind Direction,Wind SpeedMPH,Gust SpeedMPH,PrecipitationIn,Events,Conditions,WindDirDegrees,DateUTC
12:53 AM,69.1,66.0,90,29.93,7.0,Calm,Calm,-,N/A,,Clear,0,2013-05-21 04:53:00
1:53 AM,66.0,64.0,93,29.93,6.0,Calm,Calm,-,N/A,,Clear,0,2013-05-21 05:53:00
2:53 AM,64.9,64.0,97,29.93,4.0,Calm,Calm,-,N/A,,Clear,0,2013-05-21 06:53:00
3:53 AM,66.9,64.9,93,29.91,5.0,South,4.6,-,N/A,,Clear,180,2013-05-21 07:53:00
4:53 AM,66.9,64.9,93,29.91,7.0,South,4.6,-,N/A,,Scattered Clouds,170,2013-05-21 08:53:00
5:53 AM,66.9,64.9,93,29.93,5.0,SSW,5.8,-,N/A,,Mostly Cloudy,200,2013-05-21 09:53:00
6:53 AM,66.9,64.9,93,29.93,5.0,South,5.8,-,N/A,,Clear,180,2013-05-21 10:53:00
7:53 AM,70.0,66.9,90,29.93,7.0,South,6.9,-,N/A,,Clear,170,2013-05-21 11:53:00
8:53 AM,71.1,66.9,87,29.93,9.0,South,8.1,-,N/A,,Clear,190,2013-05-21 12:53:00
9:53 AM,73.0,66.9,81,29.94,10.0,SSW,10.4,-,N/A,,Clear,200,2013-05-21 13:53:00
10:53 AM,75.9,66.9,74,29.94,10.0,SW,8.1,-,N/A,,Partly Cloudy,220,2013-05-21 14:53:00
11:53 AM,77.0,66.9,71,29.93,10.0,SSW,8.1,-,N/A,,Partly Cloudy,200,2013-05-21 15:53:00
12:53 PM,79.0,64.9,62,29.91,10.0,South,10.4,-,N/A,,Clear,170,2013-05-21 16:53:00
1:53 PM,82.0,64.9,56,29.87,10.0,SE,11.5,19.6,N/A,,Clear,140,2013-05-21 17:53:00
2:53 PM,84.0,64.9,53,29.86,10.0,South,12.7,17.3,N/A,,Clear,170,2013-05-21 18:53:00
3:53 PM,84.9,64.0,49,29.84,10.0,South,12.7,20.7,N/A,,Partly Cloudy,190,2013-05-21 19:53:00
4:53 PM,84.9,64.0,49,29.83,10.0,SW,10.4,19.6,N/A,,Partly Cloudy,220,2013-05-21 20:53:00
5:53 PM,82.9,66.0,56,29.83,10.0,SSW,6.9,-,N/A,,Clear,210,2013-05-21 21:53:00
6:26 PM,82.4,64.4,54,29.84,10.0,SW,6.9,-,N/A,Thunderstorm,Scattered Clouds,220,2013-05-21 22:26:00
6:53 PM,82.9,64.9,54,29.83,10.0,NNW,6.9,-,N/A,Thunderstorm,Clear,340,2013-05-21 22:53:00
7:06 PM,80.6,66.2,61,29.84,10.0,Calm,Calm,-,N/A,,Partly Cloudy,0,2013-05-21 23:06:00
7:53 PM,78.1,64.0,62,29.82,10.0,SSW,3.5,-,N/A,,Clear,210,2013-05-21 23:53:00
8:53 PM,75.0,64.0,69,29.83,10.0,South,5.8,-,N/A,,Clear,180,2013-05-22 00:53:00
9:53 PM,72.0,64.0,76,29.83,10.0,South,5.8,-,N/A,,Clear,170,2013-05-22 01:53:00
10:53 PM,72.0,64.9,78,29.85,10.0,South,4.6,-,N/A,,Mostly Cloudy,180,2013-05-22 02:53:00
11:53 PM,73.9,63.0,68,29.85,10.0,South,9.2,-,N/A,,Scattered Clouds,190,2013-05-22 03:53:00